[[[{"header":{"parameterUnit":"kt","parameterCategory":2,"dx":1,"dy":1,"la1":30.253999710083008,"la2":30.299108505249023,"lo1":-89.0895004272461,"lo2":-89.04439544677734,"nx":28,"ny":28,"refTime":"2022-10-13T21:00:00:Z","depth":0,"parameterNumber":1,"parameterNumberName":"U-component_of_WINDS"},"data":[-0.6977,-0.701,-0.6997,-0.703,-0.7023,-0.7044,-0.7047,-0.705,-0.7049,-0.7073,-0.7084,-0.7075,-0.7069,-0.7081,-0.7093,-0.7089,-0.7097,-0.7119,-0.7111,-0.7021,-0.7008,-0.6996,-0.6988,-0.712,-0.712,-0.7206,-0.7206,-0.7207,-0.6916,-0.691,-0.6922,-0.6925,-0.6937,-0.6907,-0.6908,-0.692,-0.6939,-0.6938,-0.6948,-0.6968,-0.6982,-0.6968,-0.698,-0.6997,-0.6985,-0.7002,-0.7002,-0.7002,-0.6906,-0.6897,-0.7012,-0.7012,-0.7012,-0.7012,-0.7012,-0.7012,-0.6801,-0.6822,-0.6815,-0.6829,-0.6826,-0.6829,-0.6846,-0.6833,-0.6846,-0.6855,-0.6836,-0.6858,-0.6855,-0.6862,-0.6861,-0.6879,-0.6858,-0.6872,-0.6877,-0.6881,-0.689,-0.6773,-0.6879,-0.6879,-0.6879,-0.6878,-0.6878,0,-0.6714,-0.6701,-0.6712,-0.6719,-0.6728,-0.6732,-0.6733,-0.6743,-0.6711,-0.6723,-0.6739,-0.6747,-0.6761,-0.6776,-0.6783,-0.6779,-0.6752,-0.6746,-0.6757,-0.6768,-0.6778,-0.6776,-0.6623,-0.6744,-0.6743,-0.6742,-0.6741,-0.674,-0.6601,-0.6624,-0.661,-0.662,-0.6617,-0.6632,-0.6639,-0.6608,-0.6617,-0.6614,-0.6634,-0.6647,-0.6657,-0.6685,-0.6671,-0.6682,-0.6669,-0.6717,-0.667,-0.668,-0.6673,-0.6673,-0.6677,-0.6728,-0.6729,-0.6731,-0.6732,0,-0.6539,-0.6515,-0.6547,-0.653,-0.6527,-0.6554,-0.654,-0.6559,-0.6544,-0.6568,-0.6572,-0.6549,-0.6565,-0.6542,-0.6556,-0.6543,-0.6592,-0.6577,-0.6594,-0.6591,-0.6634,-0.6631,-0.6771,-0.6789,-0.6648,-0.665,-0.6651,0,-0.6434,-0.6466,-0.6429,-0.6449,-0.6485,-0.6452,-0.6489,-0.6479,-0.6474,-0.6492,-0.6455,-0.6474,-0.644,-0.6456,-0.6438,-0.6472,-0.6474,-0.6468,-0.6463,-0.6473,-0.6474,-0.6479,-0.6474,-0.6447,-0.6447,-0.6446,-0.6445,0,-0.6342,-0.6358,-0.639,-0.639,-0.6375,-0.6391,-0.6386,-0.6379,-0.6385,-0.639,-0.6394,-0.6402,-0.6407,-0.6414,-0.6391,-0.636,-0.6431,-0.6385,-0.6425,-0.6426,-0.6444,-0.6444,-0.6571,-0.6444,-0.6444,-0.6444,-0.6444,0,-0.6254,-0.6257,-0.6306,-0.6293,-0.6299,-0.6319,-0.6325,-0.6336,-0.6332,-0.6321,-0.6325,-0.6298,-0.6323,-0.628,-0.6316,-0.6283,-0.6291,-0.6286,-0.6289,-0.6292,-0.6244,-0.6322,-0.6444,-0.6457,-0.6292,-0.6291,-0.629,0,-0.6157,-0.6198,-0.617,-0.6217,-0.6233,-0.6191,-0.6213,-0.621,-0.6197,-0.621,-0.6196,-0.6211,-0.6172,-0.6174,-0.6195,-0.6182,-0.6224,-0.6175,-0.6198,-0.6199,-0.6203,-0.6313,-0.6339,-0.6419,-0.6273,-0.6275,-0.6276,0,-0.6078,-0.6057,-0.6068,-0.6067,-0.6055,-0.6068,-0.6093,-0.61,-0.611,-0.6109,-0.6131,-0.6149,-0.6122,-0.6125,-0.6103,-0.6126,-0.6194,-0.6094,-0.6093,-0.6115,-0.6262,-0.6286,-0.63,-0.6175,-0.6177,-0.6179,-0.6263,0,-0.5957,-0.5973,-0.5998,-0.5996,-0.6001,-0.6028,-0.6001,-0.601,-0.5989,-0.5975,-0.6005,-0.5995,-0.6002,-0.6009,-0.5988,-0.6047,-0.6034,-0.6004,-0.5962,-0.6033,-0.6061,-0.6072,-0.5923,-0.5921,-0.592,-0.5919,0,0,-0.5871,-0.5894,-0.5861,-0.5883,-0.5886,-0.5841,-0.5873,-0.587,-0.5866,-0.587,-0.5845,-0.587,-0.5863,-0.5903,-0.5923,-0.5925,-0.5934,-0.5909,-0.5999,-0.6007,-0.6016,-0.6046,-0.6057,-0.5917,-0.5917,-0.5916,-0.5916,0,-0.5821,-0.5812,-0.5842,-0.5838,-0.583,-0.5813,-0.582,-0.5804,-0.5797,-0.5824,-0.5788,-0.5802,-0.5822,-0.582,-0.5822,-0.5903,-0.5876,-0.5907,-0.5961,-0.5987,-0.5998,-0.6007,-0.6039,-0.605,-0.5913,-0.5913,-0.5913,0,-0.5741,-0.5729,-0.574,-0.5742,-0.5736,-0.5753,-0.5701,-0.572,-0.5733,-0.5682,-0.5711,-0.5702,-0.5696,-0.5736,-0.5752,-0.5731,-0.5825,-0.5789,-0.5796,-0.5798,-0.5822,-0.5835,-0.5846,-0.5698,-0.5697,-0.5697,0,0,-0.5702,-0.5716,-0.5693,-0.5729,-0.5728,-0.5702,-0.5707,-0.5686,-0.5681,-0.5679,-0.5667,-0.5664,-0.5675,-0.5684,-0.5692,-0.5739,-0.5737,-0.5764,-0.5774,-0.5782,-0.5789,-0.5815,-0.5828,-0.5694,-0.5694,-0.5694,0,0,-0.5684,-0.5658,-0.5637,-0.5674,-0.5671,-0.5651,-0.5675,-0.5648,-0.5653,-0.5647,-0.5612,-0.561,-0.5646,-0.5638,-0.5609,-0.5677,-0.5635,-0.5641,-0.5681,-0.5693,-0.5703,-0.5706,-0.5555,0,0,0,0,0,-0.5619,-0.5661,-0.5642,-0.5644,-0.5646,-0.5661,-0.5662,-0.5634,-0.5605,-0.5624,-0.561,-0.5579,-0.5616,-0.559,-0.5593,-0.5626,-0.5663,-0.5669,-0.5674,-0.5736,-0.575,-0.5761,0,0,0,0,0,0,-0.5619,-0.5622,-0.5641,-0.5623,-0.5623,-0.566,-0.5605,-0.5598,-0.5602,-0.5596,-0.5582,-0.5578,-0.5555,-0.5586,-0.5589,-0.5622,-0.5554,-0.5666,-0.567,-0.5674,-0.5741,-0.5752,-0.5761,0,0,0,0,0,-0.562,-0.5622,-0.5632,-0.5622,-0.5623,-0.5595,-0.5603,-0.5597,-0.5599,-0.5576,-0.5571,-0.5578,-0.5557,-0.5558,-0.5588,-0.5621,-0.5552,-0.5553,-0.5669,-0.5672,-0.5676,-0.5746,0,0,0,0,0,0,-0.562,-0.5617,-0.5631,-0.563,-0.5604,-0.5593,-0.559,-0.5596,-0.5579,-0.5575,-0.557,-0.5565,-0.5558,-0.5559,-0.556,-0.5622,-0.555,-0.5551,-0.5552,-0.5671,-0.5674,-0.5677,0,0,0,0,0,0,-0.5616,-0.5616,-0.5631,-0.5609,-0.5605,-0.5591,-0.5588,-0.5609,-0.558,-0.5574,-0.5569,-0.5568,-0.5557,-0.556,-0.556,-0.5594,-0.5548,-0.5549,-0.555,-0.5551,-0.5674,-0.5676,0,0,0,0,0,0,-0.5615,-0.5616,-0.5609,-0.5606,-0.5603,-0.559,-0.5609,-0.5613,-0.556,-0.5575,-0.5555,-0.5552,-0.5559,-0.5559,-0.5561,-0.5595,-0.5595,-0.5548,-0.5549,-0.555,-0.555,0,0,0,0,0,0,0,-0.5615,-0.5617,-0.5637,-0.5604,-0.5601,-0.5622,-0.5621,-0.5621,-0.556,-0.5557,-0.5555,-0.5553,-0.5541,-0.5542,-0.5544,-0.5596,0,0,-0.5548,-0.5549,0,0,0,0,0,0,0,0,-0.5616,-0.5617,-0.5637,-0.5637,-0.5636,-0.5621,-0.5621,-0.5621,-0.5559,-0.5558,-0.5556,-0.5554,-0.5541,-0.5542,-0.5543,0,0,0,0,0,0,0,0,0,0,0,0,0,0,0,-0.5637,-0.5637,0,-0.5621,-0.5621,-0.5621,-0.5559,-0.5558,-0.5556,-0.5555,-0.5541,-0.5542,-0.5543,0,0,0,0,0,0,0,0,0,0,0,0,0,0,0,0,0,0,0,0,0,0,0,0,0,0,0,0,0,0,0,0,0,0,0,0,0,0,0,0,0,0,0,0,0,0,0,0,0,0,0,0,0,0,0,0,0,0,0,0,0,0,0,0,0,0,0,0,0]}],[{"header":{"parameterUnit":"kt","parameterCategory":2,"dx":1,"dy":1,"la1":30.253999710083008,"la2":30.299108505249023,"lo1":-89.0895004272461,"lo2":-89.04439544677734,"nx":28,"ny":28,"refTime":"2022-10-13T21:00:00:Z","depth":0,"parameterNumber":2,"parameterNumberName":"V-component_of_WINDS"},"data":[3.4954,3.4962,3.4951,3.4954,3.4945,3.4944,3.494,3.4934,3.4925,3.4922,3.4918,3.4907,3.4892,3.4883,3.4877,3.4871,3.4868,3.4878,3.487,3.4838,3.4832,3.4827,3.4825,3.4879,3.4879,3.4905,3.4905,3.4905,3.4927,3.4919,3.4918,3.491,3.4908,3.4892,3.4883,3.4882,3.4882,3.4872,3.4868,3.4864,3.4859,3.4841,3.4834,3.4835,3.4825,3.4833,3.4832,3.4829,3.4795,3.4792,3.484,3.484,3.484,3.484,3.484,3.484,3.4875,3.4881,3.487,3.4869,3.4862,3.4856,3.4859,3.4846,3.4844,3.4837,3.4824,3.4823,3.4811,3.4797,3.4789,3.4786,3.4776,3.478,3.4781,3.4782,3.4783,3.4743,3.4785,3.4785,3.4785,3.4784,3.4784,0,3.4833,3.4824,3.4823,3.4819,3.4818,3.4813,3.4807,3.4809,3.4785,3.4784,3.4782,3.4779,3.4772,3.4768,3.4759,3.475,3.4731,3.4729,3.4731,3.4736,3.4741,3.4736,3.4678,3.4727,3.4727,3.4727,3.4726,3.4726,3.4777,3.4786,3.4771,3.4771,3.4766,3.4768,3.4766,3.4745,3.4744,3.4733,3.4738,3.4735,3.473,3.4728,3.4712,3.4706,3.4697,3.4716,3.4696,3.47,3.4694,3.4693,3.4692,3.472,3.4721,3.4722,3.4722,0,3.4746,3.473,3.4741,3.4724,3.472,3.473,3.4716,3.472,3.4708,3.4712,3.4711,3.4691,3.4689,3.467,3.4664,3.4654,3.4665,3.4657,3.4668,3.4665,3.4678,3.4676,3.4732,3.4737,3.4683,3.4684,3.4684,0,3.4691,3.4704,3.4679,3.4686,3.4699,3.4678,3.4691,3.4681,3.4672,3.4675,3.4652,3.4656,3.4631,3.4631,3.4616,3.4622,3.4621,3.4613,3.4608,3.4614,3.4615,3.4611,3.4608,3.4601,3.4601,3.4601,3.4601,0,3.4643,3.4646,3.4658,3.4656,3.464,3.4646,3.464,3.463,3.4629,3.4624,3.4623,3.4619,3.4617,3.4613,3.4594,3.458,3.4602,3.4579,3.4593,3.4593,3.4598,3.4598,3.4653,3.46,3.46,3.46,3.46,0,3.4596,3.4594,3.4615,3.4601,3.4602,3.4611,3.4606,3.4609,3.46,3.4591,3.4588,3.457,3.4577,3.4555,3.4562,3.4549,3.4547,3.454,3.4541,3.4539,3.4514,3.4545,3.4602,3.4606,3.4538,3.4537,3.4537,0,3.4543,3.4561,3.4544,3.4564,3.457,3.4544,3.4552,3.4546,3.4535,3.4537,3.4525,3.4527,3.4508,3.4506,3.4512,3.4499,3.4516,3.4496,3.4495,3.4495,3.4496,3.4548,3.4561,3.4592,3.453,3.4531,3.4531,0,3.4501,3.4484,3.4489,3.4485,3.4476,3.4481,3.4491,3.449,3.4492,3.4488,3.4494,3.4499,3.4483,3.4481,3.4467,3.4474,3.4504,3.4456,3.4456,3.4463,3.4526,3.4537,3.4543,3.4492,3.4493,3.4493,3.4526,0,3.4428,3.4437,3.4451,3.4446,3.4447,3.4461,3.4442,3.4446,3.4432,3.4421,3.4432,3.4423,3.4421,3.4424,3.4411,3.4435,3.4428,3.4412,3.4388,3.4424,3.4434,3.4438,3.4374,3.4374,3.4373,3.4372,0,0,3.4381,3.4393,3.4375,3.4385,3.4385,3.4359,3.4374,3.4371,3.4366,3.4365,3.4353,3.4358,3.4351,3.4366,3.4376,3.4376,3.4378,3.4367,3.4408,3.4412,3.4415,3.4426,3.4431,3.4371,3.4371,3.4371,3.4371,0,3.4351,3.4348,3.4364,3.436,3.4354,3.4343,3.4347,3.4336,3.433,3.4342,3.4319,3.4324,3.4331,3.4325,3.4323,3.4365,3.4347,3.4366,3.4393,3.4402,3.4406,3.4411,3.4423,3.4428,3.4369,3.4369,3.4369,0,3.4304,3.4297,3.4304,3.4305,3.4301,3.4308,3.4279,3.4289,3.4294,3.4265,3.4277,3.427,3.4263,3.428,3.4288,3.4276,3.4319,3.4304,3.4308,3.4307,3.4314,3.432,3.4325,3.4255,3.4255,3.4255,0,0,3.428,3.4289,3.4275,3.4297,3.4296,3.428,3.4283,3.427,3.4265,3.4264,3.4254,3.4249,3.4252,3.4254,3.4257,3.4279,3.4275,3.4291,3.4296,3.43,3.4303,3.4311,3.4317,3.4253,3.4253,3.4253,0,0,3.4268,3.4254,3.4241,3.4266,3.4262,3.425,3.4263,3.4248,3.4248,3.4245,3.4223,3.4221,3.4237,3.4231,3.4217,3.4247,3.4225,3.4228,3.4251,3.4257,3.4262,3.4263,3.4185,0,0,0,0,0,3.4229,3.4255,3.4244,3.4246,3.4248,3.4256,3.4256,3.4239,3.4223,3.4233,3.4223,3.4204,3.4218,3.4205,3.4206,3.4222,3.4238,3.4241,3.4243,3.4278,3.4285,3.4291,0,0,0,0,0,0,3.4229,3.4231,3.4244,3.4233,3.4233,3.4255,3.4223,3.4219,3.4221,3.4217,3.4207,3.4204,3.4189,3.4203,3.4205,3.422,3.4185,3.4239,3.4241,3.4243,3.428,3.4286,3.4291,0,0,0,0,0,3.423,3.4231,3.424,3.4232,3.4233,3.4216,3.4222,3.4218,3.4219,3.4204,3.42,3.4207,3.419,3.419,3.4204,3.422,3.4184,3.4184,3.424,3.4242,3.4244,3.4283,0,0,0,0,0,0,3.423,3.4227,3.4239,3.4239,3.4222,3.4215,3.4213,3.4218,3.4205,3.4202,3.4202,3.4199,3.4191,3.4191,3.4191,3.4221,3.4183,3.4183,3.4184,3.4242,3.4243,3.4245,0,0,0,0,0,0,3.4226,3.4227,3.4239,3.4226,3.4224,3.4213,3.4212,3.4222,3.4206,3.4204,3.4202,3.4201,3.419,3.4191,3.4191,3.4208,3.4182,3.4183,3.4183,3.4183,3.4243,3.4244,0,0,0,0,0,0,3.4226,3.4227,3.4226,3.4225,3.4223,3.4214,3.4222,3.4224,3.4196,3.4205,3.4193,3.4191,3.4192,3.4191,3.4192,3.4209,3.4208,3.4182,3.4183,3.4183,3.4183,0,0,0,0,0,0,0,3.4226,3.4227,3.4243,3.4223,3.4221,3.4233,3.4233,3.4232,3.4196,3.4194,3.4193,3.4192,3.4179,3.418,3.418,3.4209,0,0,3.4182,3.4182,0,0,0,0,0,0,0,0,3.4226,3.4227,3.4243,3.4243,3.4243,3.4233,3.4233,3.4232,3.4195,3.4194,3.4193,3.4192,3.4179,3.418,3.418,0,0,0,0,0,0,0,0,0,0,0,0,0,0,0,3.4243,3.4243,0,3.4233,3.4233,3.4232,3.4195,3.4194,3.4194,3.4193,3.4179,3.418,3.418,0,0,0,0,0,0,0,0,0,0,0,0,0,0,0,0,0,0,0,0,0,0,0,0,0,0,0,0,0,0,0,0,0,0,0,0,0,0,0,0,0,0,0,0,0,0,0,0,0,0,0,0,0,0,0,0,0,0,0,0,0,0,0,0,0,0,0,0,0]}]]]